Weather in Vaymusha

Russia / Arkhangel'skaya Oblast'     63°58′18″N   44°30′49″E
temp.,
°C
wind,
m/s
gust,
m/s
humid.,
%
clouds,
%
prec.,
mm/h
press.,
hPa
HPBL,
m
4 march, thu
thu400:00−10wnw249795 0.1 993109
03:00−12n269794 0.3 994161
06:00−14n2696100 0.1 993225
09:00−14nnw359397 0.3 993390
12:00−14nnw3588100 0.1 994651
15:00−14nnw3589100 0.2 994602
18:00−16nnw2796100 0.1 995381
21:00−18nnw269797 0.2 996241
5 march, fri
fri500:00−19nw259895 0.1 997189
03:00−19nw269796 0.3 998235
06:00−18nnw379795 0.1 999264
09:00−17n369395 0.2 1001408
12:00−15nnw3589100 0.1 1002514
15:00−15nnw3588100 0.1 1005575
18:00−17nnw2695100 0.1 1006364
21:00−22nnw239782 0.1 100837
6 march, sat
sat600:00−24nw229862 0.0 100920
03:00−24wnw129777 0.0 100920
06:00−25w129890 0.0 100919
09:00−22sw129788 0.0 100990
12:00−17ssw128770 0.0 1007298
15:00−13s248876 0.0 1006373
18:00−15s2597100 0.1 1005100
21:00−16sse259799 0.1 1003128
7 march, sun
sun700:00−16sse369789 0.1 1001151
03:00−17se499683 0.1 1000198
06:00−17se4109494 0.0 998263
09:00−15se5118697 0.0 997376
12:00−12ese51085100 0.0 997488
15:00−11ese51084100 0.0 997624
18:00−12e41093100 0.3 998616
21:00−13e4993100 0.6 1000521
8 march, mon
mon800:00−15ene3893100 0.1 1001365
03:00−16ne4992100 0.2 1003340
06:00−19ne4892100 0.0 1004317
09:00−20nne489197 0.0 1007306
12:00−17nne478841 0.0 1008403
15:00−16nne488937 0.0 1010437
18:00−20n399594 0.0 1013275
21:00−25n379759 0.0 1016147